Weather History for Poplar Bluff, MO

Change the Weather History Date:

Wednesday, April 18, 2012

  Actual Average Record
Temperature  
Mean Temperature 58 °F -  
Max Temperature 72 °F 71 °F 91 °F (2006)
Min Temperature 45 °F 48 °F 30 °F (1921)
Degree Days  
Heating Degree Days 7    
Growing Degree Days 8 (Base 50)    
Moisture  
Dew Point 47 °F    
Average Humidity 70    
Maximum Humidity 96    
Minimum Humidity 38    
Precipitation  
Precipitation 0.00 in - - ()
Sea Level Pressure  
Sea Level Pressure 30.15 in    
Wind  
Wind Speed 1 mph (South)    
Max Wind Speed 6 mph    
Max Gust Speed -    
Visibility 10 miles    
Events      
Averages and records for this station are not official NWS values.
T = Trace of Precipitation, MM = Missing Value Source: NWS Daily Summary

Daily Weather History Graph

Daily Weather History Graph

Search for Another Location

Airport:

Trip Planner

Search our weather history database for the weather conditions in past years. The results will help you decide how hot, cold, wet, or windy it might be!

Date:

Astronomy

Apr. 18, 2012 Rise Set
Actual Time 6:22 AM CDT 7:38 PM CDT
Civil Twilight 5:55 AM CDT 8:05 PM CDT
Nautical Twilight 5:23 AM CDT 8:38 PM CDT
Astronomical Twilight 4:50 AM CDT 9:11 PM CDT
Moon 4:44 AM CDT (4/18) 5:32 PM CDT (4/18)
Length of Visible Light 14h 10m
Length of Day
13h 16m
Waning Crescent, 6% of the Moon is Illuminated
Apr 18
Waning Crescent
Apr 21
New
Apr 29
First Quarter
May 5
Full
May 12
Last Quarter

Hourly Weather History & Observations

Time (CDT) Temp. Dew Point Humidity Pressure Visibility Wind Dir Wind Speed Gust Speed Precip Events Conditions
12:53 AM 48.0 °F 46.9 °F 96% 30.25 in 10.0 mi Calm Calm - N/A   Clear
1:53 AM 48.0 °F 46.0 °F 93% 30.23 in 10.0 mi Calm Calm - N/A   Clear
2:53 AM 46.9 °F 45.0 °F 93% 30.22 in 10.0 mi Calm Calm - N/A   Clear
3:53 AM 46.0 °F 44.1 °F 93% 30.22 in 10.0 mi Calm Calm - N/A   Clear
4:53 AM 45.0 °F 43.0 °F 93% 30.21 in 10.0 mi Calm Calm - N/A   Clear
5:53 AM 45.0 °F 43.0 °F 93% 30.20 in 7.0 mi Calm Calm - N/A   Clear
7:53 AM 50.0 °F 46.0 °F 86% 30.22 in 10.0 mi Calm Calm - N/A   Clear
8:53 AM 57.0 °F 50.0 °F 77% 30.23 in 6.0 mi Calm Calm - N/A   Haze
9:53 AM 63.0 °F 50.0 °F 63% 30.22 in 10.0 mi NE 3.5 mph - N/A   Clear
10:53 AM 64.0 °F 48.0 °F 56% 30.22 in 10.0 mi Calm Calm - N/A   Clear
11:53 AM 66.0 °F 48.0 °F 52% 30.20 in 10.0 mi Variable 3.5 mph - N/A   Clear
12:53 PM 66.9 °F 48.0 °F 51% 30.17 in 10.0 mi South 4.6 mph - N/A   Clear
1:53 PM 69.1 °F 44.1 °F 40% 30.15 in 10.0 mi Variable 5.8 mph - N/A   Clear
2:53 PM 70.0 °F 44.1 °F 39% 30.12 in 10.0 mi Calm Calm - N/A   Clear
3:53 PM 71.1 °F 44.1 °F 38% 30.09 in 10.0 mi SSW 5.8 mph - N/A   Clear
4:53 PM 71.1 °F 44.1 °F 38% 30.08 in 10.0 mi Calm Calm - N/A   Clear
5:53 PM 71.1 °F 44.1 °F 38% 30.08 in 10.0 mi Calm Calm - N/A   Clear
6:53 PM 68.0 °F 48.9 °F 50% 30.07 in 10.0 mi South 3.5 mph - N/A   Clear
7:53 PM 62.1 °F 53.1 °F 72% 30.06 in 10.0 mi Calm Calm - N/A   Clear
8:53 PM 60.1 °F 50.0 °F 69% 30.06 in 10.0 mi Calm Calm - N/A   Clear
9:53 PM 55.9 °F 52.0 °F 87% 30.06 in 10.0 mi Calm Calm - N/A   Clear
10:53 PM 54.0 °F 51.1 °F 90% 30.05 in 10.0 mi Calm Calm - N/A   Clear
11:53 PM 52.0 °F 50.0 °F 93% 30.05 in 9.0 mi Calm Calm - N/A   Clear